Location: Launay
(47.2429°N, 1.5727°E)
Time: 06:21:56
(UTC+00:00)

SL-8 Rocket - Pass Details

Date: 19 May 2025
Orbit: 955 x 990 km, 82.9° (Epoch: 18 June)

Event Time Altitude Azimuth Distance (km) Brightness Sun altitude
Rises 21:16:30 0° 351° (N) 3,654 8.2 -14.4°
Reaches altitude 10° 21:19:00 10° 351° (N) 2,701 7.3 -14.7°
Maximum altitude 21:25:12 89° 78° (ENE) 963 3.9 -15.3°
Enters shadow 21:29:42 20° 172° (S) 2,076 5.2 -15.7°
